Change the Weather History Date:

Wednesday, March 6, 2013

  Actual Average Record
Temperature  
Mean Temperature 38 °F -  
Max Temperature 54 °F - - ()
Min Temperature 21 °F - - ()
Degree Days  
Heating Degree Days 28    
Moisture  
Dew Point 27 °F    
Average Humidity 68    
Maximum Humidity 100    
Minimum Humidity 29    
Precipitation  
Precipitation 0.00 in - - ()
Sea Level Pressure  
Sea Level Pressure 29.79 in    
Wind  
Wind Speed 4 mph ()    
Max Wind Speed 13 mph    
Max Gust Speed -    
Visibility 5.8 miles    
Events      
T = Trace of Precipitation, MM = Missing Value Source: Averaged Metar Reports

Daily Weather History Graph

Daily Weather History Graph

Search for Another Location

Airport or City:

Trip Planner

Search our weather history database for the weather conditions in past years. The results will help you decide how hot, cold, wet, or windy it might be!

Date:

Astronomy

Mar. 06, 2013 Rise Set
Actual Time 6:37 AM CET 5:43 PM CET
Civil Twilight 6:00 AM CET 6:20 PM CET
Nautical Twilight 5:17 AM CET 7:04 PM CET
Astronomical Twilight 4:32 AM CET 7:48 PM CET
Moon 3:21 AM CET (3/6) 11:17 AM CET (3/6)
Length of Visible Light 12h 20m
Length of Day
11h 05m
Waning Crescent, 33% of the Moon is Illuminated
Mar 6
Waning Crescent
Mar 11
New
Mar 19
First Quarter
Mar 27
Full
Apr 3
Last Quarter

Hourly Weather History & Observations

Time (CET) Temp. Windchill Dew Point Humidity Pressure Visibility Wind Dir Wind Speed Gust Speed Precip Events Conditions
12:00 AM 24 °F - 23 °F 94% 29.81 in 5 mi NNE 4.5 mph - -   Mist
12:20 AM 24.8 °F 20.5 °F 23.0 °F 93% 29.77 in 4.3 mi NNE 3.5 mph - N/A   Mist
12:50 AM 26.6 °F - 24.8 °F 93% 29.77 in - Calm Calm - N/A   Mist
1:00 AM 24 °F - 23 °F 92% 29.81 in 4 mi NNE 2.2 mph - -  
1:20 AM 24.8 °F - 24.8 °F 100% 29.77 in 5.0 mi North 2.3 mph - N/A   Mist
1:50 AM 24.8 °F 20.5 °F 23.0 °F 93% 29.77 in 4.3 mi North 3.5 mph - N/A   Mist
2:00 AM 23 °F - 22 °F 93% 29.80 in 5 mi North 4.5 mph - -   Mist
2:20 AM 23.0 °F - 21.2 °F 93% 29.77 in 5.0 mi North 2.3 mph - N/A   Mist
2:50 AM 23.0 °F 17.0 °F 21.2 °F 93% 29.77 in 6.2 mi North 4.6 mph - N/A   Unknown
3:00 AM 22 °F - 20 °F 88% 29.78 in 6 mi North 6.7 mph - -   Mist
3:20 AM 23.0 °F 17.0 °F 21.2 °F 93% 29.74 in 6.2 mi North 4.6 mph - N/A   Unknown
3:50 AM 23.0 °F 18.4 °F 23.0 °F 100% 29.74 in 6.2 mi North 3.5 mph - N/A   Unknown
4:20 AM 23.0 °F - 21.2 °F 93% 29.74 in 6.2 mi North 2.3 mph - N/A   Unknown
4:50 AM 23.0 °F 17.0 °F 21.2 °F 93% 29.74 in 6.2 mi North 4.6 mph - N/A   Unknown
5:00 AM 22 °F - 21 °F 92% 29.78 in 6 mi North 4.5 mph - -  
5:20 AM 23.0 °F 18.4 °F 21.2 °F 93% 29.74 in 6.2 mi North 3.5 mph - N/A   Unknown
5:50 AM 23.0 °F - 21.2 °F 93% 29.74 in 6.2 mi NNW 2.3 mph - N/A   Unknown
6:00 AM 22 °F - 20 °F 91% 29.78 in 4 mi NNW 2.2 mph - -   Mist
6:20 AM 21.2 °F - 19.4 °F 93% 29.74 in 3.7 mi NW 1.2 mph - N/A   Mist
6:50 AM 21.2 °F - 19.4 °F 93% 29.74 in 3.7 mi North 2.3 mph - N/A   Mist
7:00 AM 21 °F - 19 °F 89% 29.78 in 4 mi North 2.2 mph - -  
7:20 AM 23.0 °F - 21.2 °F 93% 29.74 in 4.3 mi Variable 1.2 mph - N/A   Mist
7:50 AM 24.8 °F - 23.0 °F 93% 29.74 in 5.0 mi Calm Calm - N/A   Mist
8:00 AM 25 °F - 23 °F 91% 29.78 in 6 mi Calm Calm - -   Mist
8:20 AM 26.6 °F - 24.8 °F 93% 29.74 in 5.6 mi NNE 2.3 mph - N/A   Mist
8:50 AM 30.2 °F - 28.4 °F 93% 29.77 in 5.6 mi Variable 2.3 mph - N/A   Mist
9:00 AM 31 °F - 29 °F 88% 29.80 in 5 mi SSW 2.2 mph - -   Mist
9:50 AM 37.4 °F - 32.0 °F 81% 29.77 in - Variable 2.3 mph - N/A   Clear
10:20 AM 39.2 °F - 32.0 °F 75% 29.77 in - Variable 2.3 mph - N/A   Clear
10:50 AM 41.0 °F - 32.0 °F 70% 29.77 in - Variable 2.3 mph - N/A   Clear
11:00 AM 42 °F - 33 °F 60% 29.78 in 6 mi WNW 2.2 mph - -  
11:20 AM 44.6 °F - 33.8 °F 66% 29.77 in - Variable 2.3 mph - N/A   Clear
11:50 AM 46.4 °F - 33.8 °F 62% 29.77 in - Variable 2.3 mph - N/A   Clear
12:00 PM 46 °F - 33 °F 50% 29.78 in 6 mi WSW 2.2 mph - -  
12:20 PM 48.2 °F - 33.8 °F 58% 29.77 in - Variable 2.3 mph - N/A   Clear
12:50 PM 50.0 °F - 33.8 °F 54% 29.74 in - WNW 3.5 mph - N/A   Clear
1:00 PM 49 °F - 34 °F 44% 29.77 in 6 mi West 4.5 mph - -  
1:20 PM 50.0 °F - 33.8 °F 54% 29.74 in - NW 3.5 mph - N/A   Clear
1:50 PM 51.8 °F - 33.8 °F 50% 29.74 in - NW 5.8 mph - N/A   Clear
2:00 PM 52 °F - 35 °F 39% 29.76 in 6 mi NW 6.7 mph - -   Scattered Clouds
2:20 PM 53.6 °F - 35.6 °F 51% 29.74 in - NNW 4.6 mph - N/A   Clear
2:50 PM 53.6 °F - 35.6 °F 51% 29.74 in - NNE 6.9 mph - N/A   Clear
3:00 PM 54 °F - 35 °F 36% 29.76 in 6 mi NNE 6.7 mph - -   Scattered Clouds
3:20 PM 53.6 °F - 35.6 °F 51% 29.74 in - NNE 8.1 mph - N/A   Clear
3:50 PM 51.8 °F - 35.6 °F 54% 29.74 in - NNE 8.1 mph - N/A   Clear
4:20 PM 51.8 °F - 33.8 °F 50% 29.77 in - North 6.9 mph - N/A   Clear
4:50 PM 50.0 °F - 33.8 °F 54% 29.77 in - North 4.6 mph - N/A   Clear
5:00 PM 48 °F - 34 °F 48% 29.78 in 11 mi NNE 4.5 mph - -  
5:20 PM 48.2 °F - 33.8 °F 58% 29.77 in - North 3.5 mph - N/A   Clear
5:50 PM 46.4 °F 42.4 °F 33.8 °F 62% 29.80 in - ESE 8.1 mph - N/A   Clear
6:00 PM 45 °F - 33 °F 52% 29.81 in 10 mi ESE 6.7 mph - -  
6:20 PM 42.8 °F 40.1 °F 32.0 °F 66% 29.80 in - East 4.6 mph - N/A   Clear
6:50 PM 42.8 °F 39.3 °F 30.2 °F 61% 29.80 in - East 5.8 mph - N/A   Clear
7:00 PM 42 °F - 31 °F 55% 29.85 in 10 mi ENE 4.5 mph - -   Overcast
7:20 PM 41.0 °F 37.1 °F 30.2 °F 65% 29.83 in - NE 5.8 mph - N/A   Clear
7:50 PM 42.8 °F 37.0 °F 26.6 °F 53% 29.83 in - NE 10.4 mph - N/A   Clear
8:00 PM 43 °F - 27 °F 41% 29.87 in 28 mi NE 11.2 mph - -   Overcast
8:20 PM 42.8 °F 36.6 °F 23.0 °F 46% 29.86 in - NE 11.5 mph - N/A   Clear
8:50 PM 42.8 °F 36.6 °F 19.4 °F 39% 29.86 in - NE 11.5 mph - N/A   Clear
9:00 PM 42 °F - 21 °F 29% 29.89 in 31 mi NE 11.2 mph - -   Overcast
9:20 PM 42.8 °F 37.0 °F 19.4 °F 39% 29.89 in - NE 10.4 mph - N/A   Clear
9:50 PM 42.8 °F 37.0 °F 19.4 °F 39% 29.89 in - NE 10.4 mph - N/A   Clear
10:20 PM 41.0 °F 34.7 °F 19.4 °F 42% 29.89 in - NE 10.4 mph - N/A   Clear
10:50 PM 41.0 °F 34.7 °F 21.2 °F 45% 29.89 in 6.2 mi NE 10.4 mph - N/A   Scattered Clouds
11:00 PM 41 °F - 21 °F 32% 29.92 in 31 mi NE 11.2 mph - -  
11:20 PM 41.0 °F 33.9 °F 21.2 °F 45% 29.89 in 6.2 mi NE 12.7 mph - N/A   Overcast
11:50 PM 41.0 °F 33.9 °F 21.2 °F 45% 29.92 in 6.2 mi NE 12.7 mph - N/A   Overcast